FW4212 Weather Reports


Display with metric or nautical units.
time (UTC)temp
F
wind
direction
speed
MPH
gust
MPH
rain 1hr
in
rain 24hr
in
rain mn
in
humidity
%
barometer
mb
20260505191534 77 223 4.0 10.0 0.00 0.00 0.00 36 1015.1
20260505191037 78 84 2.0 12.0 0.00 0.00 0.00 37 1015.3
20260505190536 77 253 3.0 12.0 0.00 0.00 0.00 38 1015.5
20260505190032 78 248 3.0 11.0 0.00 0.00 0.00 36 1015.7
20260505185531 78 233 4.0 10.0 0.00 0.00 0.00 38 1015.7
20260505185034 78 208 4.0 10.0 0.00 0.00 0.00 38 1015.8
20260505184532 77 198 2.0 9.0 0.00 0.00 0.00 39 1015.7
20260505184032 76 250 3.0 10.0 0.00 0.00 0.00 37 1015.9
20260505183531 77 231 4.0 10.0 0.00 0.00 0.00 39 1016.0
20260505183038 77 197 4.0 10.0 0.00 0.00 0.00 38 1016.0
20260505182529 77 215 3.0 10.0 0.00 0.00 0.00 38 1016.1
20260505182029 76 20 4.0 10.0 0.00 0.00 0.00 39 1016.2
20260505181530 77 165 4.0 10.0 0.00 0.00 0.00 38 1016.2
20260505181029 75 150 4.0 10.0 0.00 0.00 0.00 39 1016.3
20260505180528 75 340 3.0 10.0 0.00 0.00 0.00 38 1016.3
20260505180028 76 259 4.0 11.0 0.00 0.00 0.00 36 1016.5
20260505175528 76 256 3.0 11.0 0.00 0.00 0.00 37 1016.4
20260505175028 76 218 2.0 12.0 0.00 0.00 0.00 37 1016.4
20260505174528 76 206 3.0 10.0 0.00 0.00 0.00 37 1016.6
20260505174027 76 234 3.0 10.0 0.00 0.00 0.00 39 1016.5
20260505173527 76 217 4.0 12.0 0.00 0.00 0.00 36 1016.5
20260505173026 76 232 4.0 10.0 0.00 0.00 0.00 36 1016.6
20260505172525 76 205 3.0 6.0 0.00 0.00 0.00 40 1016.6
20260505172027 75 281 2.0 10.0 0.00 0.00 0.00 40 1016.6
20260505171525 74 226 2.0 10.0 0.00 0.00 0.00 40 1016.6
20260505171025 74 257 2.0 13.0 0.00 0.00 0.00 40 1016.4
20260505170523 75 209 4.0 13.0 0.00 0.00 0.00 41 1016.6
20260505170023 75 217 2.0 7.0 0.00 0.00 0.00 42 1016.4
20260505165523 74 101 2.0 7.0 0.00 0.00 0.00 41 1016.6
20260505165024 75 207 2.0 9.0 0.00 0.00 0.00 42 1016.6
20260505164524 75 256 3.0 9.0 0.00 0.00 0.00 41 1016.7
20260505164023 75 111 3.0 8.0 0.00 0.00 0.00 39 1016.7
20260505163523 74 211 3.0 7.0 0.00 0.00 0.00 38 1016.8
20260505163022 75 120 3.0 8.0 0.00 0.00 0.00 41 1016.8
20260505162522 75 196 2.0 8.0 0.00 0.00 0.00 38 1016.9
20260505162021 75 237 2.0 11.0 0.00 0.00 0.00 39 1016.8
20260505161521 74 283 3.0 11.0 0.00 0.00 0.00 39 1017.0
20260505161020 74 240 2.0 9.0 0.00 0.00 0.00 41 1016.9
20260505160518 73 269 3.0 9.0 0.00 0.00 0.00 43 1016.9
20260505153016 72 247 1.0 6.0 0.00 0.00 0.00 49 1017.2
20260505152516 72 269 1.0 5.0 0.00 0.00 0.00 51 1017.2
20260505152013 71 213 1.0 5.0 0.00 0.00 0.00 50 1017.4
20260505151513 71 132 0.0 3.0 0.00 0.00 0.00 52 1017.3
20260505151012 71 75 1.0 6.0 0.00 0.00 0.00 52 1017.3
20260505150513 70 201 1.0 6.0 0.00 0.00 0.00 53 1017.3
20260505140500 65 114 2.0 6.0 0.00 0.00 0.00 60 1017.3
20260505140108 65 65 0.0 4.0 0.00 0.00 0.00 63 1017.3
20260505124549 58 93 0.0 2.0 0.00 0.00 0.00 73 1017.1
20260505124042 57 87 0.0 2.0 0.00 0.00 0.00 76 1017.1
20260505123542 56 133 0.0 0.0 0.00 0.00 0.00 77 1017.1
20260505123042 55 133 0.0 0.0 0.00 0.00 0.00 80 1017.1
20260505122539 54 171 0.0 0.0 0.00 0.00 0.00 81 1017.0
20260505122038 54 171 0.0 0.0 0.00 0.00 0.00 82 1017.0
20260505121538 53 171 0.0 0.0 0.00 0.00 0.00 83 1017.0
20260505121038 52 171 0.0 0.0 0.00 0.00 0.00 84 1016.9
20260505120538 52 171 0.0 0.0 0.00 0.00 0.00 84 1016.9
20260505120048 51 171 0.0 0.0 0.00 0.00 0.00 87 1016.9
20260505115536 49 171 0.0 0.0 0.00 0.00 0.00 87 1016.8
20260505115039 48 115 0.0 0.0 0.00 0.00 0.00 89 1016.9
20260505114536 47 115 0.0 0.0 0.00 0.00 0.00 91 1016.9
20260505114035 46 115 0.0 0.0 0.00 0.00 0.00 91 1016.9
20260505113535 45 115 0.0 0.0 0.00 0.00 0.00 91 1016.9
20260505113035 45 115 0.0 0.0 0.00 0.00 0.00 91 1016.9
20260505112535 45 115 0.0 0.0 0.00 0.00 0.00 92 1016.8
20260505112036 44 115 0.0 0.0 0.00 0.00 0.00 91 1016.8
20260505111535 44 115 0.0 0.0 0.00 0.00 0.00 91 1016.8
20260505111039 44 115 0.0 0.0 0.00 0.00 0.00 91 1016.7
20260505110533 44 115 0.0 0.0 0.00 0.00 0.00 91 1016.8
20260505102031 45 115 0.0 0.0 0.00 0.00 0.00 90 1016.7
20260505101530 45 115 0.0 0.0 0.00 0.00 0.00 89 1016.7
20260505101029 45 115 0.0 0.0 0.00 0.00 0.00 89 1016.6
20260505100529 45 115 0.0 0.0 0.00 0.00 0.00 89 1016.6
20260505100027 45 115 0.0 0.0 0.00 0.00 0.00 88 1016.6
20260505095526 45 115 0.0 0.0 0.00 0.00 0.00 89 1016.6
20260505095029 45 115 0.0 0.0 0.00 0.00 0.00 88 1016.6
20260505094530 45 115 0.0 0.0 0.00 0.00 0.00 88 1016.6
20260505094025 45 115 0.0 0.0 0.00 0.00 0.00 88 1016.6
20260505093526 46 115 0.0 0.0 0.00 0.00 0.00 88 1016.6
20260505093025 45 115 0.0 0.0 0.00 0.00 0.00 88 1016.5
20260505092525 45 115 0.0 0.0 0.00 0.00 0.00 88 1016.5
20260505092024 45 115 0.0 0.0 0.00 0.00 0.00 88 1016.4
20260505091523 46 115 0.0 0.0 0.00 0.00 0.00 88 1016.5
20260505091023 46 115 0.0 0.0 0.00 0.00 0.00 87 1016.5
20260505090521 46 115 0.0 0.0 0.00 0.00 0.00 87 1016.4
20260505090020 46 115 0.0 0.0 0.00 0.00 0.00 87 1016.4
20260505085522 47 115 0.0 0.0 0.00 0.00 0.00 86 1016.3
20260505085020 47 115 0.0 0.0 0.00 0.00 0.00 86 1016.3
20260505084537 47 115 0.0 0.0 0.00 0.00 0.00 85 1016.3
20260505084017 47 115 0.0 3.0 0.00 0.00 0.00 84 1016.1
20260505083516 47 115 1.0 3.0 0.00 0.00 0.00 84 1016.1
20260505083016 47 36 0.0 0.0 0.00 0.00 0.00 84 1016.1
20260505082515 48 36 0.0 0.0 0.00 0.00 0.00 84 1016.0
20260505082016 48 36 0.0 0.0 0.00 0.00 0.00 85 1016.0
20260505081518 48 36 0.0 0.0 0.00 0.00 0.00 85 1016.1
20260505081015 48 36 0.0 2.0 0.00 0.00 0.00 85 1016.0
20260505080515 48 36 0.0 2.0 0.00 0.00 0.00 84 1015.9
20260505080014 48 319 0.0 2.0 0.00 0.00 0.00 84 1015.9
20260505075514 48 342 0.0 3.0 0.00 0.00 0.00 84 1015.9
20260505075013 48 257 0.0 3.0 0.00 0.00 0.00 84 1015.8
20260505074513 48 78 0.0 3.0 0.00 0.00 0.00 84 1015.7
20260505074012 48 123 0.0 2.0 0.00 0.00 0.00 83 1015.7
20260505073512 48 123 0.0 3.0 0.00 0.00 0.00 83 1015.7
20260505073012 48 126 2.0 3.0 0.00 0.00 0.00 83 1015.7
20260505072511 48 261 0.0 0.0 0.00 0.00 0.00 83 1015.5
20260505072015 48 261 0.0 0.0 0.00 0.00 0.00 84 1015.5
20260505071510 48 261 0.0 0.0 0.00 0.00 0.00 83 1015.6
20260505071011 48 261 0.0 0.0 0.00 0.00 0.00 83 1015.5
20260505070512 49 261 0.0 0.0 0.00 0.00 0.00 83 1015.4
20260505070009 49 261 0.0 0.0 0.00 0.00 0.00 83 1015.7
20260505065514 49 261 0.0 0.0 0.00 0.00 0.00 83 1015.6
20260505065007 49 261 0.0 0.0 0.00 0.00 0.00 83 1015.6
20260505064506 49 261 0.0 0.0 0.00 0.00 0.00 83 1015.6
20260505064013 49 261 0.0 0.0 0.00 0.00 0.00 83 1015.7
20260505063506 49 261 0.0 0.0 0.00 0.00 0.00 83 1015.7
20260505063006 49 261 0.0 0.0 0.00 0.00 0.00 82 1015.7
20260505062505 49 261 0.0 0.0 0.00 0.00 0.00 82 1015.8
20260505062004 49 261 0.0 0.0 0.00 0.00 0.00 82 1015.9
20260505061508 49 261 0.0 0.0 0.00 0.00 0.00 82 1015.8
20260505061003 50 261 0.0 0.0 0.00 0.00 0.00 82 1015.8
20260505060505 50 261 0.0 0.0 0.00 0.00 0.00 82 1015.8
20260505060004 50 261 0.0 0.0 0.00 0.00 0.00 81 1015.9
20260505055501 50 261 0.0 0.0 0.00 0.00 0.00 81 1015.9
20260505055002 50 261 0.0 0.0 0.00 0.00 0.00 80 1015.8
20260505054600 50 261 0.0 0.0 0.00 0.00 0.00 80 1015.8
20260505054100 51 261 0.0 0.0 0.00 0.00 0.00 79 1015.9
20260505053558 51 261 0.0 0.0 0.00 0.00 0.00 79 1015.9
20260505053115 51 261 0.0 0.0 0.00 0.00 0.00 78 1015.8
20260505052557 51 261 0.0 0.0 0.00 0.00 0.00 78 1015.8
20260505052057 52 261 0.0 0.0 0.00 0.00 0.00 77 1015.9
20260505051557 52 261 0.0 0.0 0.00 0.00 0.00 76 1015.9
20260505051056 51 261 0.0 0.0 0.00 0.00 0.00 77 1015.9
20260505050556 52 261 0.0 0.0 0.00 0.00 0.00 76 1015.9
20260505050104 52 261 0.0 0.0 0.00 0.00 0.00 75 1015.8
20260505041550 53 261 0.0 0.0 0.00 0.00 0.00 73 1015.8
20260505041053 53 261 0.0 0.0 0.00 0.00 0.00 73 1015.9
20260505040648 53 261 0.0 0.0 0.00 0.00 0.00 73 1016.0
20260505040046 54 261 0.0 0.0 0.00 0.00 0.00 71 1015.9
20260505035549 54 261 0.0 0.0 0.00 0.00 0.00 71 1016.1
20260505035045 55 261 0.0 0.0 0.00 0.00 0.00 70 1016.1
20260505034606 55 261 0.0 0.0 0.00 0.00 0.00 68 1016.1
20260505034045 55 261 0.0 0.0 0.00 0.00 0.00 69 1016.2
20260505033545 55 261 0.0 0.0 0.00 0.00 0.00 68 1016.2
20260505033052 56 261 0.0 0.0 0.00 0.00 0.00 68 1016.2
20260505032547 56 261 0.0 0.0 0.00 0.00 0.00 67 1016.3
20260505032044 56 261 0.0 0.0 0.00 0.00 0.00 66 1016.2
20260505031545 57 261 0.0 0.0 0.00 0.00 0.00 65 1016.2
20260505031044 57 261 0.0 0.0 0.00 0.00 0.00 63 1016.2
20260505030544 57 261 0.0 0.0 0.00 0.00 0.00 61 1016.2
20260505030043 57 261 0.0 0.0 0.00 0.00 0.00 61 1016.3
20260505025543 57 261 0.0 0.0 0.00 0.00 0.00 62 1016.3
20260505025043 58 261 0.0 0.0 0.00 0.00 0.00 62 1016.2
20260505024543 58 261 0.0 0.0 0.00 0.00 0.00 61 1016.3
20260505024043 58 261 0.0 0.0 0.00 0.00 0.00 60 1016.3
20260505023543 59 261 0.0 0.0 0.00 0.00 0.00 59 1016.4
20260505023047 59 261 0.0 0.0 0.00 0.00 0.00 58 1016.3
20260505022546 61 261 0.0 0.0 0.00 0.00 0.00 55 1016.2
20260505022043 62 261 0.0 0.0 0.00 0.00 0.00 51 1016.2
20260505021542 62 263 0.0 0.0 0.00 0.00 0.00 50 1016.2
20260505021042 62 217 0.0 0.0 0.00 0.00 0.00 50 1016.3
20260505020542 61 217 0.0 0.0 0.00 0.00 0.00 52 1016.2
20260505020043 61 217 0.0 0.0 0.00 0.00 0.00 53 1016.1
20260505015541 61 217 0.0 0.0 0.00 0.00 0.00 53 1016.1
20260505015041 61 217 0.0 0.0 0.00 0.00 0.00 50 1016.0
20260505014541 61 217 0.0 0.0 0.00 0.00 0.00 49 1016.0
20260505014042 62 217 0.0 0.0 0.00 0.00 0.00 48 1016.0
20260505013541 62 217 0.0 0.0 0.00 0.00 0.00 48 1016.0
20260505013041 63 217 0.0 0.0 0.00 0.00 0.00 47 1015.7
20260505012541 63 217 0.0 0.0 0.00 0.00 0.00 46 1015.8
20260505012041 64 217 0.0 0.0 0.00 0.00 0.00 45 1015.7
20260505011602 64 217 0.0 0.0 0.00 0.00 0.00 45 1015.7
20260505011041 64 217 0.0 1.0 0.00 0.00 0.00 45 1015.6
20260505010540 65 217 0.0 1.0 0.00 0.00 0.00 45 1015.6
20260505010039 65 217 0.0 0.0 0.00 0.00 0.00 45 1015.5
20260505005540 65 217 0.0 0.0 0.00 0.00 0.00 45 1015.4
20260505005040 65 217 0.0 0.0 0.00 0.00 0.00 44 1015.4
20260505004540 66 217 0.0 1.0 0.00 0.00 0.00 44 1015.4
20260505004040 66 217 0.0 1.0 0.00 0.00 0.00 43 1015.2
20260505003539 67 217 0.0 1.0 0.00 0.00 0.00 43 1015.3
20260505003039 67 217 0.0 2.0 0.00 0.00 0.00 42 1015.2
20260505002539 68 217 0.0 3.0 0.00 0.00 0.00 42 1015.2
20260505002039 68 209 1.0 5.0 0.00 0.00 0.00 41 1015.1
20260505001539 68 209 1.0 5.0 0.00 0.00 0.00 41 1015.1
20260505001038 68 215 1.0 4.0 0.00 0.00 0.00 41 1015.1
20260505000538 69 202 0.0 4.0 0.00 0.00 0.00 40 1015.1
20260505000048 69 223 0.0 5.0 0.00 0.00 0.00 39 1015.1
20260504235538 70 238 2.0 5.0 0.00 0.00 0.00 39 1015.0
20260504235038 70 76 2.0 5.0 0.00 0.00 0.00 38 1015.0
20260504234537 70 213 1.0 5.0 0.00 0.00 0.00 38 1014.9
20260504234037 71 200 1.0 6.0 0.00 0.00 0.00 38 1014.9
20260504233537 71 212 2.0 5.0 0.00 0.00 0.00 37 1014.8
20260504233049 71 267 2.0 6.0 0.00 0.00 0.00 38 1014.7
20260504232537 72 228 0.0 7.0 0.00 0.00 0.00 37 1014.7
20260504232037 72 155 3.0 7.0 0.00 0.00 0.00 37 1014.7
20260504231538 72 211 2.0 6.0 0.00 0.00 0.00 36 1014.7
20260504231037 72 161 2.0 6.0 0.00 0.00 0.00 37 1014.6
20260504230539 73 64 1.0 7.0 0.00 0.00 0.00 36 1014.4
20260504230036 73 179 2.0 10.0 0.00 0.00 0.00 37 1014.6
20260504225536 73 217 0.0 5.0 0.00 0.00 0.00 37 1014.6
20260504225037 73 66 1.0 4.0 0.00 0.00 0.00 38 1014.6
20260504224541 73 213 0.0 8.0 0.00 0.00 0.00 38 1014.5
20260504224036 74 282 2.0 8.0 0.00 0.00 0.00 35 1014.5
20260504223536 74 210 1.0 5.0 0.00 0.00 0.00 36 1014.5
20260504223036 74 219 2.0 6.0 0.00 0.00 0.00 36 1014.6
20260504222539 74 193 2.0 6.0 0.00 0.00 0.00 36 1014.4
20260504222038 74 232 0.0 9.0 0.00 0.00 0.00 35 1014.4
20260504221535 74 188 2.0 9.0 0.00 0.00 0.00 34 1014.4
20260504221037 75 228 0.0 8.0 0.00 0.00 0.00 35 1014.4
20260504220535 75 238 3.0 8.0 0.00 0.00 0.00 32 1014.4
20260504220035 76 281 2.0 7.0 0.00 0.00 0.00 32 1014.4
20260504215536 76 229 2.0 6.0 0.00 0.00 0.00 33 1014.5
20260504215034 76 220 1.0 6.0 0.00 0.00 0.00 32 1014.4
20260504214534 76 202 1.0 6.0 0.00 0.00 0.00 34 1014.6
20260504214034 76 72 1.0 9.0 0.00 0.00 0.00 33 1014.6
20260504213534 76 223 3.0 10.0 0.00 0.00 0.00 33 1014.5
20260504213037 76 138 3.0 10.0 0.00 0.00 0.00 32 1014.4
20260504212533 76 93 2.0 8.0 0.00 0.00 0.00 32 1014.5
20260504212034 76 225 2.0 10.0 0.00 0.00 0.00 36 1014.4
20260504211532 76 211 5.0 10.0 0.00 0.00 0.00 33 1014.5
20260504211033 76 199 3.0 9.0 0.00 0.00 0.00 33 1014.6
20260504210532 76 22 2.0 10.0 0.00 0.00 0.00 34 1014.5
20260504210031 76 190 4.0 10.0 0.00 0.00 0.00 33 1014.5
20260504205531 76 232 2.0 10.0 0.00 0.00 0.00 35 1014.6
20260504205029 76 202 1.0 10.0 0.00 0.00 0.00 33 1014.7
20260504204529 76 179 2.0 9.0 0.00 0.00 0.00 35 1014.7
20260504204029 77 234 2.0 8.0 0.00 0.00 0.00 34 1014.9
20260504203528 76 86 1.0 12.0 0.00 0.00 0.00 36 1014.8
20260504203028 76 226 3.0 12.0 0.00 0.00 0.00 35 1014.9
20260504202529 77 261 3.0 7.0 0.00 0.00 0.00 33 1014.9
20260504202027 77 194 1.0 7.0 0.00 0.00 0.00 34 1015.0
20260504201527 77 152 1.0 7.0 0.00 0.00 0.00 34 1015.0
20260504201025 77 161 2.0 7.0 0.00 0.00 0.00 38 1015.1
20260504200525 77 245 3.0 7.0 0.00 0.00 0.00 34 1015.2
20260504200028 77 168 2.0 6.0 0.00 0.00 0.00 35 1015.4
20260504195523 77 198 2.0 7.0 0.00 0.00 0.00 34 1015.3
20260504195023 77 127 1.0 5.0 0.00 0.00 0.00 36 1015.3
20260504194529 76 96 0.0 6.0 0.00 0.00 0.00 34 1015.4
20260504194022 76 344 3.0 6.0 0.00 0.00 0.00 32 1015.4
20260504193522 77 205 2.0 6.0 0.00 0.00 0.00 36 1015.5
20260504193022 76 134 2.0 5.0 0.00 0.00 0.00 32 1015.6
20260504192521 77 107 1.0 6.0 0.00 0.00 0.00 35 1015.7
20260504192021 77 233 1.0 8.0 0.00 0.00 0.00 35 1015.8